sat.trackr.live / text

‹ back to catalog

STARLINK-1812

NORAD 47126 · 2020-088E

PAYLOAD ACTIVE UNKNOWN

§ Identity

Operator
Country
US
Launch date
2020-11-25
Launch site
AFETR
Launch vehicle
Mass (kg)
RCS (m²)

Purposes: comms

External: N2YO · Heavens-Above · Gunter

§ Orbital elements

Epoch: 2026-05-25T04:06:27.423072Z

Period
94.76 min
Inclination
53.0769°
Eccentricity
0.0001832
Mean motion
15.19585314 rev/d
Perigee alt
505.8 km
Apogee alt
508.4 km
Semi-major
6,885.2 km
B*
1.5303e-3
RAAN
310.5664°
Arg perigee
138.8022°
Mean anomaly
221.3111°
Rev number
30,348

§ Raw data

STARLINK-18121 47126U 20088E   26145.17115073  .00032803  00000+0  15303-2 0  99902 47126  53.0769 310.5664 0001832 138.8022 221.3111 15.19585314303486

JSON: /api/v1/satellites/47126 · /tle

For live sub-satellite position, see the globe view (requires WebGL).

§ Visibility from observer

Set your observer location to see the next 7 days of passes ≥ 10°. The values pass through the URL so the page stays shareable.

No JS? Fill the form by hand. The geolocation button needs JavaScript.